Antalya, Turkey

2:34 PM +03 on June 27, 2017 (GMT +0300)
Antalya

Weather History for LTAI - January, 2012

Change the Weather History Date:

Wednesday, January 4, 2012

  Actual Average Record
Temperature  
Mean Temperature 48 °F -  
Max Temperature 62 °F 59 °F 66 °F (2003)
Min Temperature 35 °F 43 °F 34 °F (2017)
Degree Days  
Heating Degree Days 16    
Moisture  
Dew Point 36 °F    
Average Humidity 69    
Maximum Humidity 87    
Minimum Humidity 36    
Precipitation  
Precipitation 0.00 in 0.30 in - ()
Sea Level Pressure  
Sea Level Pressure 30.18 in    
Wind  
Wind Speed 5 mph ()    
Max Wind Speed 9 mph    
Max Gust Speed -    
Visibility 6.1 miles    
Events      
Averages and records for this station are not official NWS values.
T = Trace of Precipitation, MM = Missing Value Source: Averaged Metar Reports

Daily Weather History Graph

Daily Weather History Graph

Search for Another Location

Airport or City:

Trip Planner

Search our weather history database for the weather conditions in past years. The results will help you decide how hot, cold, wet, or windy it might be!

Date:

Astronomy

Jan. 04, 2012 Rise Set
Actual Time 7:10 AM EET 4:53 PM EET
Civil Twilight 6:41 AM EET 5:22 PM EET
Nautical Twilight 6:09 AM EET 5:54 PM EET
Astronomical Twilight 5:37 AM EET 6:25 PM EET
Moon 1:02 PM EET (1/4) 2:41 AM EET (1/4)
Length of Visible Light 10h 40m
Length of Day
9h 42m
Waxing Gibbous, 78% of the Moon is Illuminated
Jan 4
Waxing Gibbous
Jan 9
Full
Jan 16
Last Quarter
Jan 23
New
Jan 31
First Quarter

Hourly Weather History & Observations

Time (EET) Temp. Windchill Dew Point Humidity Pressure Visibility Wind Dir Wind Speed Gust Speed Precip Events Conditions
12:20 AM 41.0 °F 38.0 °F 33.8 °F 76% 30.24 in - North 4.6 mph - N/A   Clear
12:50 AM 39.2 °F 35.9 °F 33.8 °F 81% 30.24 in - North 4.6 mph - N/A   Clear
1:20 AM 39.2 °F 34.2 °F 32.0 °F 75% 30.24 in - North 6.9 mph - N/A   Clear
1:50 AM 39.2 °F 34.2 °F 32.0 °F 75% 30.27 in - North 6.9 mph - N/A   Clear
2:00 AM 38 °F - 32 °F 71% 30.26 in 6 mi North 6.9 mph - -  
2:20 AM 37.4 °F 32.1 °F 32.0 °F 81% 30.24 in - North 6.9 mph - N/A   Clear
2:50 AM 39.2 °F 34.2 °F 33.8 °F 81% 30.24 in - North 6.9 mph - N/A   Clear
3:20 AM 39.2 °F 33.6 °F 32.0 °F 75% 30.24 in - NNW 8.1 mph - N/A   Clear
3:50 AM 41.0 °F 36.4 °F 32.0 °F 70% 30.24 in - North 6.9 mph - N/A   Clear
4:20 AM 39.2 °F 35.0 °F 32.0 °F 75% 30.24 in - North 5.8 mph - N/A   Clear
4:50 AM 37.4 °F 32.8 °F 32.0 °F 81% 30.21 in - North 5.8 mph - N/A   Clear
5:20 AM 37.4 °F 33.8 °F 32.0 °F 81% 30.24 in - North 4.6 mph - N/A   Clear
5:50 AM 39.2 °F 35.9 °F 32.0 °F 75% 30.24 in - North 4.6 mph - N/A   Clear
6:20 AM 37.4 °F 32.1 °F 32.0 °F 81% 30.24 in - NNW 6.9 mph - N/A   Clear
6:50 AM 39.2 °F 34.2 °F 32.0 °F 75% 30.24 in - NNW 6.9 mph - N/A   Clear
7:20 AM 35.6 °F 30.7 °F 30.2 °F 81% 30.24 in - NNW 5.8 mph - N/A   Clear
7:50 AM 39.2 °F 34.2 °F 32.0 °F 75% 30.24 in - North 6.9 mph - N/A   Clear
8:00 AM 39 °F - 31 °F 64% 30.23 in 6 mi North 6.9 mph - -  
8:20 AM 41.0 °F 35.2 °F 32.0 °F 70% 30.24 in - North 9.2 mph - N/A   Clear
8:50 AM 44.6 °F 40.7 °F 35.6 °F 71% 30.24 in - North 6.9 mph - N/A   Clear
9:20 AM 48.2 °F - 37.4 °F 66% 30.24 in - North 5.8 mph - N/A   Clear
9:50 AM 50.0 °F - 35.6 °F 58% 30.24 in - North 5.8 mph - N/A   Clear
10:20 AM 53.6 °F - 35.6 °F 51% 30.21 in - North 5.8 mph - N/A   Clear
10:50 AM 55.4 °F - 33.8 °F 44% 30.21 in - North 4.6 mph - N/A   Clear
11:20 AM 57.2 °F - 33.8 °F 41% 30.18 in - North 4.6 mph - N/A   Clear
11:50 AM 59.0 °F - 32.0 °F 36% 30.18 in - North 3.5 mph - N/A   Clear
12:20 PM 59.0 °F - 35.6 °F 42% 30.15 in - Variable 2.3 mph - N/A   Clear
12:50 PM 59.0 °F - 35.6 °F 42% 30.15 in 6.2 mi Variable 2.3 mph - N/A   Partly Cloudy
1:20 PM 59.0 °F - 37.4 °F 45% 30.15 in 6.2 mi NNW 4.6 mph - N/A   Partly Cloudy
1:50 PM 62.6 °F - 37.4 °F 39% 30.12 in 6.2 mi Variable 2.3 mph - N/A   Partly Cloudy
2:20 PM 60.8 °F - 41.0 °F 48% 30.12 in 6.2 mi SSE 4.6 mph - N/A   Partly Cloudy
2:50 PM 59.0 °F - 39.2 °F 48% 30.12 in 6.2 mi South 5.8 mph - N/A   Partly Cloudy
3:20 PM 59.0 °F - 41.0 °F 51% 30.12 in 6.2 mi South 4.6 mph - N/A   Partly Cloudy
3:50 PM 57.2 °F - 41.0 °F 55% 30.12 in 6.2 mi South 4.6 mph - N/A   Partly Cloudy
4:20 PM 55.4 °F - 41.0 °F 58% 30.12 in 6.2 mi SSW 4.6 mph - N/A   Partly Cloudy
4:50 PM 53.6 °F - 41.0 °F 62% 30.12 in - SSW 4.6 mph - N/A   Clear
5:20 PM 50.0 °F - 41.0 °F 71% 30.12 in - SSW 2.3 mph - N/A   Clear
5:50 PM 48.2 °F - 41.0 °F 76% 30.12 in - Calm Calm - N/A   Clear
6:20 PM 46.4 °F - 41.0 °F 81% 30.12 in - ENE 2.3 mph - N/A   Clear
6:50 PM 44.6 °F - 39.2 °F 81% 30.12 in - Variable 2.3 mph - N/A   Clear
7:20 PM 44.6 °F 42.2 °F 39.2 °F 81% 30.12 in - NNW 4.6 mph - N/A   Clear
7:50 PM 44.6 °F 40.2 °F 39.2 °F 81% 30.15 in - North 8.1 mph - N/A   Clear
8:00 PM 44 °F - 39 °F 78% 30.14 in 6 mi North 8.1 mph - -  
8:20 PM 44.6 °F 41.4 °F 39.2 °F 81% 30.15 in - NNW 5.8 mph - N/A   Clear
8:50 PM 42.8 °F 38.6 °F 39.2 °F 87% 30.15 in - North 6.9 mph - N/A   Clear
9:20 PM 42.8 °F 38.0 °F 37.4 °F 81% 30.12 in - North 8.1 mph - N/A   Clear
9:50 PM 41.0 °F 37.1 °F 37.4 °F 87% 30.15 in - NNW 5.8 mph - N/A   Clear
10:20 PM 41.0 °F 38.0 °F 37.4 °F 87% 30.15 in - NNW 4.6 mph - N/A   Clear
10:50 PM 39.2 °F 33.6 °F 35.6 °F 87% 30.12 in - North 8.1 mph - N/A   Clear
11:20 PM 39.2 °F 35.9 °F 35.6 °F 87% 30.12 in - NNW 4.6 mph - N/A   Clear
11:50 PM 41.0 °F 38.0 °F 35.6 °F 81% 30.12 in - North 4.6 mph - N/A   Clear